Time,TemperatureF,DewpointF,PressureIn,WindDirection,WindDirectionDegrees,WindSpeedMPH,WindSpeedGustMPH,Humidity,HourlyPrecipIn,Conditions,Clouds,dailyrainin,SoftwareType,DateUTC
2013-04-13 00:00:00,57.2,48.3,29.87,NE,38,0.0,0.0,72,0.00,,,0.34,Wunderground v.1.15,2013-04-13 04:00:00,
2013-04-13 00:02:00,57.1,48.2,29.87,NE,38,0.0,0.0,72,0.00,,,0.00,Wunderground v.1.15,2013-04-13 04:02:00,
2013-04-13 00:08:00,56.8,48.2,29.87,NE,38,0.0,0.0,73,0.00,,,0.00,Wunderground v.1.15,2013-04-13 04:08:00,
2013-04-13 00:14:00,56.5,46.8,29.87,NE,38,0.0,0.0,70,0.00,,,0.00,Wunderground v.1.15,2013-04-13 04:14:00,
2013-04-13 00:20:00,56.3,47.4,29.87,NE,38,0.0,0.0,72,0.00,,,0.00,Wunderground v.1.15,2013-04-13 04:20:00,
2013-04-13 00:26:00,56.0,47.8,29.88,NE,38,0.0,0.0,74,0.00,,,0.00,Wunderground v.1.15,2013-04-13 04:26:00,
2013-04-13 00:32:00,55.8,47.3,29.88,NE,38,0.0,0.0,73,0.00,,,0.00,Wunderground v.1.15,2013-04-13 04:32:00,
2013-04-13 00:38:00,55.5,46.6,29.88,NE,38,0.0,0.0,72,0.00,,,0.00,Wunderground v.1.15,2013-04-13 04:38:00,
2013-04-13 00:44:00,55.2,46.7,29.88,NE,38,0.0,0.0,73,0.00,,,0.00,Wunderground v.1.15,2013-04-13 04:44:00,
2013-04-13 00:50:00,55.0,47.2,29.88,NE,38,0.0,0.0,75,0.00,,,0.00,Wunderground v.1.15,2013-04-13 04:50:00,
2013-04-13 00:56:00,54.7,46.6,29.89,NE,38,0.0,0.0,74,0.00,,,0.00,Wunderground v.1.15,2013-04-13 04:56:00,
2013-04-13 01:02:00,54.5,46.4,29.89,NE,38,0.0,0.0,74,0.00,,,0.00,Wunderground v.1.15,2013-04-13 05:02:00,
2013-04-13 01:08:00,54.2,46.8,29.89,NE,38,0.0,0.0,76,0.00,,,0.00,Wunderground v.1.15,2013-04-13 05:08:00,
2013-04-13 01:14:00,54.0,47.0,29.89,NE,38,0.0,0.0,77,0.00,,,0.00,Wunderground v.1.15,2013-04-13 05:14:00,
2013-04-13 01:20:00,53.7,47.0,29.89,NE,38,0.0,0.0,78,0.00,,,0.00,Wunderground v.1.15,2013-04-13 05:20:00,
2013-04-13 01:26:00,53.3,47.0,29.90,NE,38,0.0,0.0,79,0.00,,,0.00,Wunderground v.1.15,2013-04-13 05:26:00,
2013-04-13 01:32:00,53.0,46.0,29.90,NE,38,0.0,0.0,77,0.00,,,0.00,Wunderground v.1.15,2013-04-13 05:32:00,
2013-04-13 01:38:00,52.8,46.1,29.90,NE,38,0.0,0.0,78,0.00,,,0.00,Wunderground v.1.15,2013-04-13 05:38:00,
2013-04-13 01:44:00,52.6,45.2,29.90,NE,38,0.0,0.0,76,0.00,,,0.00,Wunderground v.1.15,2013-04-13 05:44:00,
2013-04-13 01:50:00,52.6,45.6,29.89,NE,38,0.0,0.0,77,0.00,,,0.00,Wunderground v.1.15,2013-04-13 05:50:00,
2013-04-13 01:56:00,52.6,45.2,29.89,NE,38,0.0,0.0,76,0.00,,,0.00,Wunderground v.1.15,2013-04-13 05:56:00,
2013-04-13 02:02:00,52.6,45.2,29.89,NE,38,0.0,0.0,76,0.00,,,0.00,Wunderground v.1.15,2013-04-13 06:02:00,
2013-04-13 02:08:00,52.6,44.2,29.89,NE,38,0.0,0.0,73,0.00,,,0.00,Wunderground v.1.15,2013-04-13 06:08:00,
2013-04-13 02:14:00,52.5,43.7,29.89,NE,38,0.0,0.0,72,0.00,,,0.00,Wunderground v.1.15,2013-04-13 06:14:00,
2013-04-13 02:20:00,52.5,44.1,29.89,NE,38,0.0,0.0,73,0.00,,,0.00,Wunderground v.1.15,2013-04-13 06:20:00,
2013-04-13 02:26:00,52.6,43.8,29.89,NE,38,0.0,0.0,72,0.00,,,0.00,Wunderground v.1.15,2013-04-13 06:26:00,
2013-04-13 02:32:00,52.6,44.2,29.89,NE,38,0.0,0.0,73,0.00,,,0.00,Wunderground v.1.15,2013-04-13 06:32:00,
2013-04-13 02:38:00,52.3,43.2,29.89,NE,38,0.0,0.0,71,0.00,,,0.00,Wunderground v.1.15,2013-04-13 06:38:00,
2013-04-13 02:44:00,52.1,43.3,29.89,NE,38,0.0,0.0,72,0.00,,,0.00,Wunderground v.1.15,2013-04-13 06:44:00,
2013-04-13 02:50:00,51.8,43.4,29.89,NE,38,0.0,0.0,73,0.00,,,0.00,Wunderground v.1.15,2013-04-13 06:50:00,
2013-04-13 02:56:00,51.5,43.8,29.90,NE,38,0.0,0.0,75,0.00,,,0.00,Wunderground v.1.15,2013-04-13 06:56:00,
2013-04-13 03:02:00,51.2,43.9,29.90,NE,38,0.0,0.0,76,0.00,,,0.00,Wunderground v.1.15,2013-04-13 07:02:00,
2013-04-13 03:08:00,50.9,43.9,29.90,NE,38,0.0,0.0,77,0.00,,,0.00,Wunderground v.1.15,2013-04-13 07:08:00,
2013-04-13 03:14:00,50.5,43.6,29.90,NE,38,0.0,0.0,77,0.00,,,0.00,Wunderground v.1.15,2013-04-13 07:14:00,
2013-04-13 03:20:00,50.2,43.6,29.90,NE,38,0.0,0.0,78,0.00,,,0.00,Wunderground v.1.15,2013-04-13 07:20:00,
2013-04-13 03:26:00,49.9,44.0,29.90,NE,38,0.0,0.0,80,0.00,,,0.00,Wunderground v.1.15,2013-04-13 07:26:00,
2013-04-13 03:32:00,49.6,44.3,29.90,NE,38,0.0,0.0,82,0.00,,,0.00,Wunderground v.1.15,2013-04-13 07:32:00,
2013-04-13 03:38:00,49.3,44.4,29.90,NE,38,0.0,0.0,83,0.00,,,0.00,Wunderground v.1.15,2013-04-13 07:38:00,
2013-04-13 03:44:00,49.0,44.1,29.91,NE,38,0.0,0.0,83,0.00,,,0.00,Wunderground v.1.15,2013-04-13 07:44:00,
2013-04-13 03:50:00,48.7,44.1,29.91,NE,38,0.0,0.0,84,0.00,,,0.00,Wunderground v.1.15,2013-04-13 07:50:00,
2013-04-13 03:56:00,48.4,44.1,29.91,NE,38,0.0,0.0,85,0.00,,,0.00,Wunderground v.1.15,2013-04-13 07:56:00,
2013-04-13 04:02:00,48.2,43.9,29.91,NE,38,0.0,0.0,85,0.00,,,0.00,Wunderground v.1.15,2013-04-13 08:02:00,
2013-04-13 04:08:00,48.0,43.7,29.91,NE,38,0.0,0.0,85,0.00,,,0.00,Wunderground v.1.15,2013-04-13 08:08:00,
2013-04-13 04:14:00,47.8,43.8,29.91,NE,38,0.0,0.0,86,0.00,,,0.00,Wunderground v.1.15,2013-04-13 08:14:00,
2013-04-13 04:20:00,47.6,43.6,29.91,NE,38,0.0,0.0,86,0.00,,,0.00,Wunderground v.1.15,2013-04-13 08:20:00,
2013-04-13 04:26:00,47.3,43.3,29.92,NE,38,0.0,0.0,86,0.00,,,0.00,Wunderground v.1.15,2013-04-13 08:26:00,
2013-04-13 04:32:00,47.1,43.4,29.92,NE,38,0.0,0.0,87,0.00,,,0.00,Wunderground v.1.15,2013-04-13 08:32:00,
2013-04-13 04:38:00,46.9,43.2,29.92,NE,38,0.0,0.0,87,0.00,,,0.00,Wunderground v.1.15,2013-04-13 08:38:00,
2013-04-13 04:44:00,46.7,43.0,29.92,NE,38,0.0,0.0,87,0.00,,,0.00,Wunderground v.1.15,2013-04-13 08:44:00,
2013-04-13 04:50:00,46.5,43.1,29.92,NE,38,0.0,0.0,88,0.00,,,0.00,Wunderground v.1.15,2013-04-13 08:50:00,
2013-04-13 04:56:00,46.3,42.9,29.92,NE,38,0.0,0.0,88,0.00,,,0.00,Wunderground v.1.15,2013-04-13 08:56:00,
2013-04-13 05:02:00,46.1,42.7,29.93,NE,38,0.0,0.0,88,0.00,,,0.00,Wunderground v.1.15,2013-04-13 09:02:00,
2013-04-13 05:08:00,45.9,42.8,29.93,NE,38,0.0,0.0,89,0.00,,,0.00,Wunderground v.1.15,2013-04-13 09:08:00,
2013-04-13 05:14:00,45.8,42.7,29.93,NE,38,0.0,0.0,89,0.00,,,0.00,Wunderground v.1.15,2013-04-13 09:14:00,
2013-04-13 05:20:00,45.6,42.5,29.93,NE,38,0.0,0.0,89,0.00,,,0.00,Wunderground v.1.15,2013-04-13 09:20:00,
2013-04-13 05:26:00,45.5,42.7,29.93,NE,38,0.0,0.0,90,0.00,,,0.00,Wunderground v.1.15,2013-04-13 09:26:00,
2013-04-13 05:32:00,45.4,42.6,29.93,NE,38,0.0,0.0,90,0.00,,,0.00,Wunderground v.1.15,2013-04-13 09:32:00,
2013-04-13 05:38:00,45.2,42.4,29.93,NE,38,0.0,0.0,90,0.00,,,0.00,Wunderground v.1.15,2013-04-13 09:38:00,
2013-04-13 05:44:00,45.1,42.3,29.94,NE,38,0.0,0.0,90,0.00,,,0.00,Wunderground v.1.15,2013-04-13 09:44:00,
2013-04-13 05:50:00,45.0,42.5,29.94,NE,38,0.0,0.0,91,0.00,,,0.00,Wunderground v.1.15,2013-04-13 09:50:00,
2013-04-13 05:56:00,45.0,42.8,29.94,NE,38,0.0,0.0,92,0.00,,,0.00,Wunderground v.1.15,2013-04-13 09:56:00,
2013-04-13 06:02:00,44.9,42.4,29.94,NE,38,0.0,0.0,91,0.00,,,0.00,Wunderground v.1.15,2013-04-13 10:02:00,
2013-04-13 06:08:00,44.8,42.3,29.94,NE,38,0.0,0.0,91,0.00,,,0.00,Wunderground v.1.15,2013-04-13 10:08:00,
2013-04-13 06:14:00,44.6,42.1,29.95,NE,38,0.0,0.0,91,0.00,,,0.00,Wunderground v.1.15,2013-04-13 10:14:00,
2013-04-13 06:20:00,44.6,42.4,29.95,NE,38,0.0,0.0,92,0.00,,,0.00,Wunderground v.1.15,2013-04-13 10:20:00,
2013-04-13 06:26:00,44.5,42.3,29.95,NE,38,0.0,0.0,92,0.00,,,0.00,Wunderground v.1.15,2013-04-13 10:26:00,
2013-04-13 06:32:00,44.3,42.1,29.96,NE,38,0.0,0.0,92,0.00,,,0.00,Wunderground v.1.15,2013-04-13 10:32:00,
2013-04-13 06:38:00,44.2,42.0,29.96,NE,38,0.0,0.0,92,0.00,,,0.00,Wunderground v.1.15,2013-04-13 10:38:00,
2013-04-13 06:44:00,44.1,41.9,29.96,NE,38,0.0,0.0,92,0.00,,,0.00,Wunderground v.1.15,2013-04-13 10:44:00,
2013-04-13 06:50:00,44.0,41.8,29.97,NE,38,0.0,0.0,92,0.00,,,0.00,Wunderground v.1.15,2013-04-13 10:50:00,
2013-04-13 06:56:00,43.9,41.7,29.97,NE,38,0.0,0.0,92,0.00,,,0.00,Wunderground v.1.15,2013-04-13 10:56:00,
2013-04-13 07:02:00,43.8,41.6,29.97,NE,38,0.0,0.0,92,0.00,,,0.00,Wunderground v.1.15,2013-04-13 11:02:00,
2013-04-13 07:08:00,43.7,41.8,29.98,NE,38,0.0,0.0,93,0.00,,,0.00,Wunderground v.1.15,2013-04-13 11:08:00,
2013-04-13 07:14:00,43.5,41.6,29.99,NE,38,0.0,0.0,93,0.00,,,0.00,Wunderground v.1.15,2013-04-13 11:14:00,
2013-04-13 07:20:00,43.5,41.6,29.99,NE,38,0.0,0.0,93,0.00,,,0.00,Wunderground v.1.15,2013-04-13 11:20:00,
2013-04-13 07:26:00,43.6,41.7,29.99,NE,38,0.0,0.0,93,0.00,,,0.00,Wunderground v.1.15,2013-04-13 11:26:00,
2013-04-13 07:32:00,43.7,42.1,30.00,NE,38,0.0,0.0,94,0.00,,,0.00,Wunderground v.1.15,2013-04-13 11:32:00,
2013-04-13 07:38:00,43.9,42.3,30.00,NE,38,0.0,0.0,94,0.00,,,0.00,Wunderground v.1.15,2013-04-13 11:38:00,
2013-04-13 07:44:00,44.3,42.7,30.00,NE,38,0.0,0.0,94,0.00,,,0.00,Wunderground v.1.15,2013-04-13 11:44:00,
2013-04-13 07:50:00,44.7,43.4,30.00,NE,38,0.0,0.0,95,0.00,,,0.00,Wunderground v.1.15,2013-04-13 11:50:00,
2013-04-13 07:58:00,45.4,44.1,30.00,NE,38,0.0,0.0,95,0.00,,,0.00,Wunderground v.1.15,2013-04-13 11:58:00,
2013-04-13 08:04:00,46.0,44.6,30.00,NE,38,0.0,0.0,95,0.00,,,0.00,Wunderground v.1.15,2013-04-13 12:04:00,
2013-04-13 08:10:00,46.4,45.0,30.00,NE,38,0.0,0.0,95,0.00,,,0.00,Wunderground v.1.15,2013-04-13 12:10:00,
2013-04-13 08:18:00,47.5,46.4,30.00,NE,38,0.0,0.0,96,0.00,,,0.00,Wunderground v.1.15,2013-04-13 12:18:00,
2013-04-13 08:24:00,48.4,47.3,30.00,NE,38,0.0,0.0,96,0.00,,,0.00,Wunderground v.1.15,2013-04-13 12:24:00,
2013-04-13 08:30:00,49.2,47.8,30.00,NE,38,0.0,0.0,95,0.00,,,0.00,Wunderground v.1.15,2013-04-13 12:30:00,
2013-04-13 08:36:00,50.8,46.1,30.01,East,85,0.0,1.0,84,0.00,,,0.00,Wunderground v.1.15,2013-04-13 12:36:00,
2013-04-13 08:42:00,53.0,46.3,30.02,East,97,0.0,1.0,78,0.00,,,0.00,Wunderground v.1.15,2013-04-13 12:42:00,
2013-04-13 08:48:00,54.8,44.4,30.01,East,97,0.0,1.0,68,0.00,,,0.00,Wunderground v.1.15,2013-04-13 12:48:00,
2013-04-13 08:54:00,56.7,44.2,30.01,West,260,0.0,2.0,63,0.00,,,0.00,Wunderground v.1.15,2013-04-13 12:54:00,
2013-04-13 09:00:00,58.1,43.4,30.02,SSW,205,1.0,1.0,58,0.00,,,0.00,Wunderground v.1.15,2013-04-13 13:00:00,
2013-04-13 09:06:00,59.0,44.2,30.02,SSE,155,1.0,3.0,58,0.00,,,0.00,Wunderground v.1.15,2013-04-13 13:06:00,
2013-04-13 09:12:00,60.2,43.0,30.02,WSW,248,1.0,2.0,53,0.00,,,0.00,Wunderground v.1.15,2013-04-13 13:12:00,
2013-04-13 09:18:00,60.9,43.1,30.03,WSW,256,2.0,2.0,52,0.00,,,0.00,Wunderground v.1.15,2013-04-13 13:18:00,
2013-04-13 09:24:00,61.6,42.8,30.03,SSW,210,1.0,2.0,50,0.00,,,0.00,Wunderground v.1.15,2013-04-13 13:24:00,
2013-04-13 09:30:00,62.3,41.8,30.03,SW,217,1.0,1.0,47,0.00,,,0.00,Wunderground v.1.15,2013-04-13 13:30:00,
2013-04-13 09:36:00,63.0,44.1,30.03,West,265,1.0,1.0,50,0.00,,,0.00,Wunderground v.1.15,2013-04-13 13:36:00,
2013-04-13 09:42:00,63.7,43.1,30.03,South,174,1.0,1.0,47,0.00,,,0.00,Wunderground v.1.15,2013-04-13 13:42:00,
2013-04-13 09:48:00,64.0,43.4,30.03,WSW,254,1.0,2.0,47,0.00,,,0.00,Wunderground v.1.15,2013-04-13 13:48:00,
2013-04-13 09:54:00,64.4,42.0,30.03,WSW,237,1.0,2.0,44,0.00,,,0.00,Wunderground v.1.15,2013-04-13 13:54:00,
2013-04-13 10:00:00,64.7,44.5,30.03,SE,128,1.0,2.0,48,0.00,,,0.00,Wunderground v.1.15,2013-04-13 14:00:00,
2013-04-13 10:06:00,64.6,41.6,30.03,ENE,65,1.0,2.0,43,0.00,,,0.00,Wunderground v.1.15,2013-04-13 14:06:00,
2013-04-13 10:12:00,64.6,46.1,30.03,NE,56,1.0,1.0,51,0.00,,,0.00,Wunderground v.1.15,2013-04-13 14:12:00,
2013-04-13 10:18:00,65.3,45.6,30.03,North,349,1.0,2.0,49,0.00,,,0.00,Wunderground v.1.15,2013-04-13 14:18:00,
2013-04-13 10:24:00,66.1,44.1,30.04,North,358,1.0,2.0,45,0.00,,,0.00,Wunderground v.1.15,2013-04-13 14:24:00,
2013-04-13 10:30:00,66.6,43.4,30.03,West,281,1.0,2.0,43,0.00,,,0.00,Wunderground v.1.15,2013-04-13 14:30:00,
2013-04-13 10:36:00,66.7,43.5,30.03,NNW,341,2.0,2.0,43,0.00,,,0.00,Wunderground v.1.15,2013-04-13 14:36:00,
2013-04-13 10:42:00,67.2,46.8,30.04,NW,323,1.0,2.0,48,0.00,,,0.00,Wunderground v.1.15,2013-04-13 14:42:00,
2013-04-13 10:48:00,67.7,45.6,30.04,NW,310,1.0,3.0,45,0.00,,,0.00,Wunderground v.1.15,2013-04-13 14:48:00,
2013-04-13 10:54:00,67.9,43.3,30.04,WSW,253,2.0,3.0,41,0.00,,,0.00,Wunderground v.1.15,2013-04-13 14:54:00,
2013-04-13 11:00:00,67.5,42.3,30.04,South,185,1.0,1.0,40,0.00,,,0.00,Wunderground v.1.15,2013-04-13 15:00:00,
2013-04-13 11:06:00,67.9,44.0,30.04,NW,311,1.0,2.0,42,0.00,,,0.00,Wunderground v.1.15,2013-04-13 15:06:00,
2013-04-13 11:12:00,68.0,42.8,30.04,West,268,1.0,2.0,40,0.00,,,0.00,Wunderground v.1.15,2013-04-13 15:12:00,
2013-04-13 11:18:00,68.5,45.1,30.04,NNE,15,1.0,2.0,43,0.00,,,0.00,Wunderground v.1.15,2013-04-13 15:18:00,
2013-04-13 11:24:00,68.9,42.9,30.04,NW,318,2.0,3.0,39,0.00,,,0.00,Wunderground v.1.15,2013-04-13 15:24:00,
2013-04-13 11:30:00,69.0,43.0,30.04,WNW,285,2.0,3.0,39,0.00,,,0.00,Wunderground v.1.15,2013-04-13 15:30:00,
2013-04-13 11:36:00,69.2,45.1,30.04,NW,311,2.0,3.0,42,0.00,,,0.00,Wunderground v.1.15,2013-04-13 15:36:00,
2013-04-13 11:42:00,69.3,45.2,30.04,ENE,58,2.0,2.0,42,0.00,,,0.00,Wunderground v.1.15,2013-04-13 15:42:00,
2013-04-13 11:48:00,69.2,45.1,30.04,ENE,62,1.0,2.0,42,0.00,,,0.00,Wunderground v.1.15,2013-04-13 15:48:00,
2013-04-13 11:54:00,69.8,46.3,30.04,SSW,210,1.0,2.0,43,0.00,,,0.00,Wunderground v.1.15,2013-04-13 15:54:00,
2013-04-13 12:00:00,69.9,43.1,30.04,NE,50,2.0,6.0,38,0.00,,,0.00,Wunderground v.1.15,2013-04-13 16:00:00,
2013-04-13 12:06:00,69.8,46.9,30.04,North,349,3.0,6.0,44,0.00,,,0.00,Wunderground v.1.15,2013-04-13 16:06:00,
2013-04-13 12:12:00,69.8,45.0,30.04,ENE,66,2.0,2.0,41,0.00,,,0.00,Wunderground v.1.15,2013-04-13 16:12:00,
2013-04-13 12:18:00,70.0,45.2,30.04,WNW,303,2.0,4.0,41,0.00,,,0.00,Wunderground v.1.15,2013-04-13 16:18:00,
2013-04-13 12:24:00,70.4,44.3,30.04,West,267,2.0,3.0,39,0.00,,,0.00,Wunderground v.1.15,2013-04-13 16:24:00,
2013-04-13 12:30:00,70.8,46.6,30.04,North,4,2.0,2.0,42,0.00,,,0.00,Wunderground v.1.15,2013-04-13 16:30:00,
2013-04-13 12:36:00,70.7,47.7,30.03,NW,314,2.0,2.0,44,0.00,,,0.00,Wunderground v.1.15,2013-04-13 16:36:00,
2013-04-13 12:42:00,71.1,48.1,30.03,North,4,2.0,3.0,44,0.00,,,0.00,Wunderground v.1.15,2013-04-13 16:42:00,
2013-04-13 12:48:00,71.3,48.9,30.04,NNE,20,2.0,5.0,45,0.00,,,0.00,Wunderground v.1.15,2013-04-13 16:48:00,
2013-04-13 12:54:00,71.1,43.5,30.04,ENE,75,3.0,3.0,37,0.00,,,0.00,Wunderground v.1.15,2013-04-13 16:54:00,
2013-04-13 13:00:00,71.2,46.9,30.03,NW,323,2.0,2.0,42,0.00,,,0.00,Wunderground v.1.15,2013-04-13 17:00:00,
2013-04-13 13:06:00,71.3,43.0,30.03,WNW,287,2.0,2.0,36,0.00,,,0.00,Wunderground v.1.15,2013-04-13 17:06:00,
2013-04-13 13:12:00,71.6,48.5,30.02,NE,53,2.0,5.0,44,0.00,,,0.00,Wunderground v.1.15,2013-04-13 17:12:00,
2013-04-13 13:20:00,72.2,45.2,30.02,NNW,328,2.0,2.0,38,0.00,,,0.00,Wunderground v.1.15,2013-04-13 17:20:00,
2013-04-13 13:26:00,72.5,45.4,30.02,NNW,333,2.0,3.0,38,0.00,,,0.00,Wunderground v.1.15,2013-04-13 17:26:00,
2013-04-13 13:32:00,72.6,42.6,30.02,ESE,122,2.0,2.0,34,0.00,,,0.00,Wunderground v.1.15,2013-04-13 17:32:00,
2013-04-13 13:38:00,72.7,48.3,30.01,NNE,23,2.0,2.0,42,0.00,,,0.00,Wunderground v.1.15,2013-04-13 17:38:00,
2013-04-13 13:44:00,72.8,45.0,30.01,NE,53,3.0,3.0,37,0.00,,,0.00,Wunderground v.1.15,2013-04-13 17:44:00,
2013-04-13 13:50:00,72.3,42.3,30.01,NNW,334,2.0,2.0,34,0.00,,,0.00,Wunderground v.1.15,2013-04-13 17:50:00,
2013-04-13 13:56:00,72.5,42.5,30.01,East,91,1.0,4.0,34,0.00,,,0.00,Wunderground v.1.15,2013-04-13 17:56:00,
2013-04-13 14:02:00,72.8,42.8,30.01,NW,306,2.0,4.0,34,0.00,,,0.00,Wunderground v.1.15,2013-04-13 18:02:00,
2013-04-13 14:08:00,73.1,47.3,30.01,NNE,14,2.0,4.0,40,0.00,,,0.00,Wunderground v.1.15,2013-04-13 18:08:00,
2013-04-13 14:14:00,73.6,45.0,30.01,NW,313,1.0,2.0,36,0.00,,,0.00,Wunderground v.1.15,2013-04-13 18:14:00,
2013-04-13 14:20:00,74.0,46.1,30.01,NNW,335,1.0,1.0,37,0.00,,,0.00,Wunderground v.1.15,2013-04-13 18:20:00,
2013-04-13 14:28:00,74.1,48.2,30.01,NNW,338,2.0,4.0,40,0.00,,,0.00,Wunderground v.1.15,2013-04-13 18:28:00,
2013-04-13 14:30:00,74.3,49.7,30.01,NE,49,2.0,6.0,42,0.00,,,0.00,Wunderground v.1.15,2013-04-13 18:30:00,
2013-04-13 14:32:00,74.4,48.5,30.01,ENE,61,2.0,6.0,40,0.00,,,0.00,Wunderground v.1.15,2013-04-13 18:32:00,
2013-04-13 14:36:00,74.7,47.4,30.00,ENE,65,2.0,6.0,38,0.00,,,0.00,Wunderground v.1.15,2013-04-13 18:36:00,
2013-04-13 14:42:00,74.8,47.5,30.00,ENE,62,2.0,3.0,38,0.00,,,0.00,Wunderground v.1.15,2013-04-13 18:42:00,
2013-04-13 14:48:00,74.7,46.7,30.00,NNW,333,2.0,5.0,37,0.00,,,0.00,Wunderground v.1.15,2013-04-13 18:48:00,
2013-04-13 14:54:00,75.0,49.0,30.00,NE,56,3.0,4.0,40,0.00,,,0.00,Wunderground v.1.15,2013-04-13 18:54:00,
2013-04-13 15:00:00,74.7,43.7,30.00,ENE,58,2.0,2.0,33,0.00,,,0.00,Wunderground v.1.15,2013-04-13 19:00:00,
2013-04-13 15:06:00,74.4,43.4,30.00,ENE,59,2.0,4.0,33,0.00,,,0.00,Wunderground v.1.15,2013-04-13 19:06:00,
2013-04-13 15:12:00,74.8,46.1,29.99,ENE,57,2.0,2.0,36,0.00,,,0.00,Wunderground v.1.15,2013-04-13 19:12:00,
2013-04-13 15:18:00,75.0,50.3,29.99,ENE,68,1.0,2.0,42,0.00,,,0.00,Wunderground v.1.15,2013-04-13 19:18:00,
2013-04-13 15:24:00,75.3,45.7,29.99,NNE,16,2.0,5.0,35,0.00,,,0.00,Wunderground v.1.15,2013-04-13 19:24:00,
2013-04-13 15:30:00,74.8,44.5,29.99,ESE,106,3.0,3.0,34,0.00,,,0.00,Wunderground v.1.15,2013-04-13 19:30:00,
2013-04-13 15:36:00,74.1,43.9,29.99,NE,56,3.0,4.0,34,0.00,,,0.00,Wunderground v.1.15,2013-04-13 19:36:00,
2013-04-13 15:42:00,74.0,43.8,29.99,East,81,2.0,2.0,34,0.00,,,0.00,Wunderground v.1.15,2013-04-13 19:42:00,
2013-04-13 15:48:00,74.4,43.4,29.98,East,89,3.0,7.0,33,0.00,,,0.00,Wunderground v.1.15,2013-04-13 19:48:00,
2013-04-13 15:54:00,74.9,43.0,29.98,ENE,74,2.0,3.0,32,0.00,,,0.00,Wunderground v.1.15,2013-04-13 19:54:00,
2013-04-13 16:00:00,75.1,46.3,29.98,ENE,57,2.0,2.0,36,0.00,,,0.00,Wunderground v.1.15,2013-04-13 20:00:00,
2013-04-13 16:06:00,75.2,43.3,29.98,NE,56,2.0,3.0,32,0.00,,,0.00,Wunderground v.1.15,2013-04-13 20:06:00,
2013-04-13 16:12:00,75.3,42.6,29.97,NNW,341,2.0,3.0,31,0.00,,,0.00,Wunderground v.1.15,2013-04-13 20:12:00,
2013-04-13 16:18:00,75.3,43.4,29.97,NE,49,2.0,3.0,32,0.00,,,0.00,Wunderground v.1.15,2013-04-13 20:18:00,
2013-04-13 16:24:00,75.5,41.9,29.97,ENE,68,2.0,2.0,30,0.00,,,0.00,Wunderground v.1.15,2013-04-13 20:24:00,
2013-04-13 16:30:00,75.6,43.7,29.97,North,351,1.0,1.0,32,0.00,,,0.00,Wunderground v.1.15,2013-04-13 20:30:00,
2013-04-13 16:36:00,75.8,43.0,29.97,East,84,1.0,3.0,31,0.00,,,0.00,Wunderground v.1.15,2013-04-13 20:36:00,
2013-04-13 16:42:00,75.7,44.5,29.97,NE,52,1.0,4.0,33,0.00,,,0.00,Wunderground v.1.15,2013-04-13 20:42:00,
2013-04-13 16:48:00,75.9,43.1,29.97,SE,145,1.0,4.0,31,0.00,,,0.00,Wunderground v.1.15,2013-04-13 20:48:00,
2013-04-13 16:54:00,76.3,41.7,29.97,NE,47,1.0,5.0,29,0.00,,,0.00,Wunderground v.1.15,2013-04-13 20:54:00,
2013-04-13 17:00:00,75.9,42.2,29.97,SSW,193,2.0,2.0,30,0.00,,,0.00,Wunderground v.1.15,2013-04-13 21:00:00,
2013-04-13 17:06:00,75.9,40.4,29.97,ENE,74,1.0,2.0,28,0.00,,,0.00,Wunderground v.1.15,2013-04-13 21:06:00,
2013-04-13 17:12:00,75.4,40.9,29.97,SE,139,3.0,5.0,29,0.00,,,0.00,Wunderground v.1.15,2013-04-13 21:12:00,
2013-04-13 17:18:00,75.4,40.0,29.97,SSW,200,2.0,5.0,28,0.00,,,0.00,Wunderground v.1.15,2013-04-13 21:18:00,
2013-04-13 17:24:00,75.6,39.2,29.96,SW,223,1.0,1.0,27,0.00,,,0.00,Wunderground v.1.15,2013-04-13 21:24:00,
2013-04-13 17:30:00,75.7,42.9,29.97,SW,214,0.0,0.0,31,0.00,,,0.00,Wunderground v.1.15,2013-04-13 21:30:00,
2013-04-13 17:36:00,75.7,40.3,29.97,SSE,159,1.0,2.0,28,0.00,,,0.00,Wunderground v.1.15,2013-04-13 21:36:00,
2013-04-13 17:42:00,75.8,39.4,29.97,SSE,164,1.0,1.0,27,0.00,,,0.00,Wunderground v.1.15,2013-04-13 21:42:00,
2013-04-13 17:48:00,75.8,41.3,29.97,SSW,200,1.0,1.0,29,0.00,,,0.00,Wunderground v.1.15,2013-04-13 21:48:00,
2013-04-13 17:54:00,75.8,39.4,29.97,ESE,121,1.0,2.0,27,0.00,,,0.00,Wunderground v.1.15,2013-04-13 21:54:00,
2013-04-13 18:00:00,75.8,39.4,29.96,ESE,120,1.0,1.0,27,0.00,,,0.00,Wunderground v.1.15,2013-04-13 22:00:00,
2013-04-13 18:06:00,75.8,39.4,29.96,East,84,2.0,4.0,27,0.00,,,0.00,Wunderground v.1.15,2013-04-13 22:06:00,
2013-04-13 18:12:00,75.6,39.2,29.96,ENE,66,2.0,3.0,27,0.00,,,0.00,Wunderground v.1.15,2013-04-13 22:12:00,
2013-04-13 18:18:00,75.7,41.2,29.96,East,83,1.0,3.0,29,0.00,,,0.00,Wunderground v.1.15,2013-04-13 22:18:00,
2013-04-13 18:24:00,75.8,39.4,29.97,North,6,1.0,2.0,27,0.00,,,0.00,Wunderground v.1.15,2013-04-13 22:24:00,
2013-04-13 18:30:00,75.7,41.2,29.97,NE,51,2.0,4.0,29,0.00,,,0.00,Wunderground v.1.15,2013-04-13 22:30:00,
2013-04-13 18:36:00,75.6,40.2,29.97,ENE,57,2.0,4.0,28,0.00,,,0.00,Wunderground v.1.15,2013-04-13 22:36:00,
2013-04-13 18:42:00,75.5,39.2,29.97,ENE,63,1.0,2.0,27,0.00,,,0.00,Wunderground v.1.15,2013-04-13 22:42:00,
2013-04-13 18:48:00,75.6,39.2,29.97,NE,53,1.0,2.0,27,0.00,,,0.00,Wunderground v.1.15,2013-04-13 22:48:00,
2013-04-13 18:54:00,75.7,39.3,29.97,NE,53,1.0,2.0,27,0.00,,,0.00,Wunderground v.1.15,2013-04-13 22:54:00,
2013-04-13 19:00:00,75.8,41.3,29.97,NE,52,0.0,0.0,29,0.00,,,0.00,Wunderground v.1.15,2013-04-13 23:00:00,
2013-04-13 19:06:00,75.6,40.2,29.97,NE,52,0.0,0.0,28,0.00,,,0.00,Wunderground v.1.15,2013-04-13 23:06:00,
2013-04-13 19:12:00,75.5,41.0,29.97,NE,52,0.0,0.0,29,0.00,,,0.00,Wunderground v.1.15,2013-04-13 23:12:00,
2013-04-13 19:18:00,75.2,40.7,29.97,NE,52,0.0,0.0,29,0.00,,,0.00,Wunderground v.1.15,2013-04-13 23:18:00,
2013-04-13 19:24:00,74.7,42.0,29.97,NE,52,0.0,0.0,31,0.00,,,0.00,Wunderground v.1.15,2013-04-13 23:24:00,
2013-04-13 19:30:00,74.0,41.4,29.98,NE,52,0.0,0.0,31,0.00,,,0.00,Wunderground v.1.15,2013-04-13 23:30:00,
2013-04-13 19:36:00,73.3,41.6,29.98,NE,52,0.0,0.0,32,0.00,,,0.00,Wunderground v.1.15,2013-04-13 23:36:00,
2013-04-13 19:42:00,72.4,41.7,29.98,NE,52,0.0,0.0,33,0.00,,,0.00,Wunderground v.1.15,2013-04-13 23:42:00,
2013-04-13 19:48:00,71.4,42.3,29.98,NE,52,0.0,0.0,35,0.00,,,0.00,Wunderground v.1.15,2013-04-13 23:48:00,
2013-04-13 19:54:00,70.5,43.0,29.98,NE,52,0.0,0.0,37,0.00,,,0.00,Wunderground v.1.15,2013-04-13 23:54:00,
2013-04-13 20:00:00,69.6,42.9,29.98,NE,52,0.0,0.0,38,0.00,,,0.00,Wunderground v.1.15,2013-04-14 00:00:00,
2013-04-13 20:06:00,68.7,43.4,29.98,NE,52,0.0,0.0,40,0.00,,,0.00,Wunderground v.1.15,2013-04-14 00:06:00,
2013-04-13 20:12:00,67.7,43.8,29.99,NE,52,0.0,0.0,42,0.00,,,0.00,Wunderground v.1.15,2013-04-14 00:12:00,
2013-04-13 20:18:00,66.8,44.2,29.99,NE,52,0.0,0.0,44,0.00,,,0.00,Wunderground v.1.15,2013-04-14 00:18:00,
2013-04-13 20:24:00,66.0,44.0,29.99,NE,52,0.0,0.0,45,0.00,,,0.00,Wunderground v.1.15,2013-04-14 00:24:00,
2013-04-13 20:30:00,65.2,43.9,29.99,NE,52,0.0,0.0,46,0.00,,,0.00,Wunderground v.1.15,2013-04-14 00:30:00,
2013-04-13 20:36:00,64.3,43.6,30.00,NE,52,0.0,0.0,47,0.00,,,0.00,Wunderground v.1.15,2013-04-14 00:36:00,
2013-04-13 20:42:00,63.6,44.6,30.00,NE,52,0.0,0.0,50,0.00,,,0.00,Wunderground v.1.15,2013-04-14 00:42:00,
2013-04-13 20:48:00,62.9,45.0,30.00,NE,52,0.0,0.0,52,0.00,,,0.00,Wunderground v.1.15,2013-04-14 00:48:00,
2013-04-13 20:54:00,62.3,45.4,30.01,NE,52,0.0,0.0,54,0.00,,,0.00,Wunderground v.1.15,2013-04-14 00:54:00,
2013-04-13 21:00:00,61.9,46.5,30.01,NE,52,0.0,0.0,57,0.00,,,0.00,Wunderground v.1.15,2013-04-14 01:00:00,
2013-04-13 21:06:00,61.4,46.5,30.02,NE,52,0.0,0.0,58,0.00,,,0.00,Wunderground v.1.15,2013-04-14 01:06:00,
2013-04-13 21:12:00,61.0,47.0,30.02,NE,52,0.0,0.0,60,0.00,,,0.00,Wunderground v.1.15,2013-04-14 01:12:00,
2013-04-13 21:18:00,60.6,46.6,30.02,NE,52,0.0,0.0,60,0.00,,,0.00,Wunderground v.1.15,2013-04-14 01:18:00,
2013-04-13 21:24:00,60.2,46.3,30.02,NE,52,0.0,0.0,60,0.00,,,0.00,Wunderground v.1.15,2013-04-14 01:24:00,
2013-04-13 21:30:00,59.8,46.3,30.03,NE,52,0.0,0.0,61,0.00,,,0.00,Wunderground v.1.15,2013-04-14 01:30:00,
2013-04-13 21:36:00,59.5,46.9,30.03,NE,52,0.0,0.0,63,0.00,,,0.00,Wunderground v.1.15,2013-04-14 01:36:00,
2013-04-13 21:42:00,59.3,47.5,30.04,NE,52,0.0,0.0,65,0.00,,,0.00,Wunderground v.1.15,2013-04-14 01:42:00,
2013-04-13 21:48:00,58.9,48.0,30.04,NE,52,0.0,0.0,67,0.00,,,0.00,Wunderground v.1.15,2013-04-14 01:48:00,
2013-04-13 21:54:00,58.6,46.9,30.05,NE,52,0.0,0.0,65,0.00,,,0.00,Wunderground v.1.15,2013-04-14 01:54:00,
2013-04-13 22:00:00,58.3,46.6,30.05,NE,52,0.0,0.0,65,0.00,,,0.00,Wunderground v.1.15,2013-04-14 02:00:00,
2013-04-13 22:06:00,58.0,46.3,30.05,NE,52,0.0,0.0,65,0.00,,,0.00,Wunderground v.1.15,2013-04-14 02:06:00,
2013-04-13 22:12:00,57.8,46.1,30.06,NE,52,0.0,1.0,65,0.00,,,0.00,Wunderground v.1.15,2013-04-14 02:12:00,
2013-04-13 22:18:00,58.1,45.6,30.06,ENE,61,0.0,1.0,63,0.00,,,0.00,Wunderground v.1.15,2013-04-14 02:18:00,
2013-04-13 22:24:00,58.7,45.7,30.07,ENE,61,0.0,0.0,62,0.00,,,0.00,Wunderground v.1.15,2013-04-14 02:24:00,
2013-04-13 22:30:00,58.9,46.7,30.06,ENE,61,0.0,0.0,64,0.00,,,0.00,Wunderground v.1.15,2013-04-14 02:30:00,
2013-04-13 22:36:00,58.8,46.6,30.07,ENE,61,0.0,0.0,64,0.00,,,0.00,Wunderground v.1.15,2013-04-14 02:36:00,
2013-04-13 22:42:00,58.6,46.5,30.07,ENE,61,0.0,0.0,64,0.00,,,0.00,Wunderground v.1.15,2013-04-14 02:42:00,
2013-04-13 22:48:00,58.2,46.5,30.07,ENE,61,0.0,0.0,65,0.00,,,0.00,Wunderground v.1.15,2013-04-14 02:48:00,
2013-04-13 22:54:00,57.9,46.6,30.07,ENE,61,0.0,0.0,66,0.00,,,0.00,Wunderground v.1.15,2013-04-14 02:54:00,
2013-04-13 23:00:00,57.6,46.7,30.07,ENE,61,0.0,0.0,67,0.00,,,0.00,Wunderground v.1.15,2013-04-14 03:00:00,
2013-04-13 23:06:00,57.2,46.3,30.07,ENE,61,0.0,0.0,67,0.00,,,0.00,Wunderground v.1.15,2013-04-14 03:06:00,
2013-04-13 23:12:00,56.8,46.3,30.07,ENE,61,0.0,0.0,68,0.00,,,0.00,Wunderground v.1.15,2013-04-14 03:12:00,
2013-04-13 23:18:00,56.4,46.7,30.07,ENE,61,0.0,0.0,70,0.00,,,0.00,Wunderground v.1.15,2013-04-14 03:18:00,
2013-04-13 23:24:00,56.1,47.2,30.07,ENE,61,0.0,0.0,72,0.00,,,0.00,Wunderground v.1.15,2013-04-14 03:24:00,
2013-04-13 23:30:00,55.8,47.3,30.08,ENE,61,0.0,0.0,73,0.00,,,0.00,Wunderground v.1.15,2013-04-14 03:30:00,
2013-04-13 23:36:00,55.5,47.3,30.07,ENE,61,0.0,0.0,74,0.00,,,0.00,Wunderground v.1.15,2013-04-14 03:36:00,
2013-04-13 23:42:00,55.0,46.9,30.08,ENE,61,0.0,0.0,74,0.00,,,0.00,Wunderground v.1.15,2013-04-14 03:42:00,
2013-04-13 23:48:00,54.7,46.9,30.08,ENE,61,0.0,0.0,75,0.00,,,0.00,Wunderground v.1.15,2013-04-14 03:48:00,
2013-04-13 23:54:00,54.5,46.7,30.08,ENE,61,0.0,0.0,75,0.00,,,0.00,Wunderground v.1.15,2013-04-14 03:54:00,